Terminal Aerodrome Forecast
Issued by NWS

Home | Current Version | Previous Version | Text Only | Print | Product List | Glossary On
Versions: 1 2 3 4 5 6 7 8 9 10 11 12 13 14 15 16 17 18 19 20 21 22 23 24 25 26 27 28 29 30 31
000
FTUS41 KBOX 301122
TAFBAF
TAF
KBAF 301122Z 3012/0112 01006KT 4SM -DZ BR OVC005
     FM301500 04005KT P6SM OVC015
     FM301800 07005KT P6SM SCT025
     FM010500 01005KT P6SM BKN015
     FM010900 01005KT P6SM OVC008=

USA.gov is the U.S. government's official web portal to all federal, state and local government web resources and services.